Location: Monroe
(41.9160°N, 83.3980°W)
Time: 16:47:42
(UTC-05:00)

Amateur Radio Satellites - All Passes

Search period start: 03 December 2016 16:17
Search period end: 04 December 2016 16:17
Location: Monroe, 41.9160°N, 83.3980°W

Satellite Date Start Highest point End Downlink Frequencies (MHz)
Time Altitude Azimuth
BRITE-PL 03 Dec 16:21:08 16:24:55 32° 69° (ENE) 16:28:57 437.365/2234.400
BEESAT 3 03 Dec 16:24:31 16:26:23 13° 251° (WSW) 16:28:15 437.485
HORYU 2 03 Dec 16:26:13 16:30:14 34° 69° (ENE) 16:34:17 437.375
STARS 03 Dec 16:28:06 16:31:23 20° 94° (E) 16:34:37 437.465
CUTE-I 03 Dec 16:33:03 16:36:01 15° 59° (ENE) 16:38:59 437.470
RS-15 03 Dec 16:36:18 16:48:36 61° 49° (NE) 17:00:31 29.354- 29.394
DOVE 4 03 Dec 16:40:36 16:41:52 11° 58° (ENE) 16:43:10 437.250
BEESAT 2 03 Dec 16:46:37 16:49:13 17° 249° (WSW) 16:51:48 435.950
O/OREOS (USA 219) 03 Dec 16:48:14 16:52:42 56° 109° (ESE) 16:57:11 437.305
CUBESAT XI-V 03 Dec 16:53:00 16:57:00 28° 95° (E) 17:00:59 437.345
AUBIESAT-1 03 Dec 16:55:53 16:58:16 14° 304° (NW) 17:00:37 437.475
Cubesat XI-IV 03 Dec 16:56:32 17:00:44 24° 64° (ENE) 17:04:56 437.490
MOZHAYETS 4 03 Dec 16:58:17 17:02:30 38° 290° (WNW) 17:06:42
SWISSCUBE 03 Dec 17:02:00 17:03:00 11° 302° (WNW) 17:03:59 437.505
NOAA 15 03 Dec 17:03:40 17:08:09 30° 66° (ENE) 17:12:39 137.62
BEESAT 03 Dec 17:06:17 17:07:23 11° 302° (WNW) 17:08:28 436.000
AIST 2 03 Dec 17:09:13 17:12:48 26° 47° (NE) 17:16:23 435.215
LilacSat-2 03 Dec 17:14:11 17:17:22 25° 70° (ENE) 17:20:35 437.200
Cosmos 2491 03 Dec 17:19:49 17:26:32 24° 64° (ENE) 17:33:11 435.465 / 435.565
HO-68 03 Dec 17:31:59 17:35:55 16° 52° (NE) 17:39:52 435.675
ISS 03 Dec 17:42:55 17:46:09 57° 142° (SE) 17:49:24 145.825
GOMX 1 03 Dec 17:49:12 17:53:38 72° 258° (WSW) 17:58:27 467.674
KKS-1 03 Dec 17:50:00 17:53:45 27° 293° (WNW) 17:57:29 437.445
YUBILEINY 03 Dec 17:53:50 17:57:12 13° 73° (ENE) 18:00:34 435.215
NOAA 18 03 Dec 17:54:48 18:00:09 52° 70° (ENE) 18:05:32 137.9125
BRITE-PL 03 Dec 18:00:15 18:03:32 22° 268° (W) 18:06:58 437.365/2234.400
HORYU 2 03 Dec 18:03:15 18:06:50 23° 265° (W) 18:10:27 437.375
STARS 03 Dec 18:03:44 18:07:51 38° 290° (WNW) 18:11:55 437.465
CUTE-I 03 Dec 18:10:00 18:15:23 79° 256° (WSW) 18:20:47 437.470
DOVE 4 03 Dec 18:13:56 18:18:38 86° 78° (ENE) 18:23:40 437.250
CINEMA 3 03 Dec 18:16:56 18:20:59 26° 67° (ENE) 18:25:07 145.822/145.860
SEEDS 03 Dec 18:29:12 18:30:51 12° 63° (ENE) 18:32:31 437.485
O/OREOS (USA 219) 03 Dec 18:29:30 18:32:29 17° 307° (NW) 18:35:27 437.305
CUBESAT XI-V 03 Dec 18:30:16 18:34:20 30° 291° (WNW) 18:38:23 437.345
Cubesat XI-IV 03 Dec 18:35:18 18:40:29 48° 261° (W) 18:45:41 437.490
NOAA 15 03 Dec 18:43:03 18:47:48 35° 263° (W) 18:52:36 137.62
COMPASS 1 03 Dec 18:45:10 18:46:47 12° 63° (ENE) 18:48:24 437.405
AIST 2 03 Dec 18:47:29 18:51:20 34° 245° (WSW) 18:55:09 435.215
LilacSat-2 03 Dec 18:48:32 18:51:37 23° 265° (W) 18:54:43 437.200
RS-15 03 Dec 18:49:27 19:00:44 45° 252° (WSW) 19:11:40 29.354- 29.394
Cosmos 2504 03 Dec 18:52:07 18:56:26 15° 74° (ENE) 19:00:52 435.465 / 435.565
CUBEBUG 2 03 Dec 18:55:18 18:58:21 17° 64° (ENE) 19:01:24 437.445
CUTE 1.7 + AOD 2 03 Dec 19:13:10 19:17:16 53° 73° (ENE) 19:21:23 437.475
HO-68 03 Dec 19:15:21 19:22:29 76° 71° (ENE) 19:29:40 435.675
Cosmos 2491 03 Dec 19:15:36 19:24:19 77° 266° (W) 19:32:59 435.465 / 435.565
ISS 03 Dec 19:20:01 19:22:51 26° 339° (NNW) 19:25:41 145.825
STRAND 1 03 Dec 19:21:02 19:25:39 33° 97° (E) 19:30:12 437.568
CANX-2 03 Dec 19:30:26 19:34:40 83° 258° (WSW) 19:38:54 2200.000
NOAA 18 03 Dec 19:36:54 19:41:05 22° 267° (W) 19:45:18 137.9125
Oscar 11 03 Dec 19:39:26 19:42:01 16° 64° (ENE) 19:44:35 145.826/435.025
UWE-3 03 Dec 19:42:30 19:46:38 32° 70° (ENE) 19:50:44 435.000/436.395/437.385
YUBILEINY 03 Dec 19:43:39 19:52:16 72° 94° (E) 20:00:58 435.215
AAUSAT CUBESAT 2 03 Dec 19:50:30 19:54:27 48° 73° (ENE) 19:58:24 437.432
CINEMA 3 03 Dec 19:53:23 19:57:54 37° 264° (W) 20:02:33 145.822/145.860
SEEDS 03 Dec 20:01:54 20:06:02 62° 260° (W) 20:10:10 437.485
AIST 1 03 Dec 20:16:35 20:20:43 49° 93° (E) 20:24:56
SO-50 03 Dec 20:17:42 20:21:23 22° 112° (ESE) 20:25:03 436.795
COMPASS 1 03 Dec 20:17:44 20:21:48 62° 259° (W) 20:25:55 437.405
PCSat 03 Dec 20:19:25 20:23:37 22° 45° (NE) 20:27:48 145.827
ZACube-1 03 Dec 20:29:32 20:34:02 60° 74° (ENE) 20:38:31 437.345
CUBEBUG 2 03 Dec 20:29:50 20:34:30 56° 260° (W) 20:39:11 437.445
FUNcube-1 03 Dec 20:38:51 20:43:23 70° 75° (ENE) 20:47:53 145.935
Cosmos 2504 03 Dec 20:39:58 20:48:12 79° 95° (E) 20:57:00 435.465 / 435.565
HUMSAT D 03 Dec 20:48:03 20:50:44 17° 65° (ENE) 20:53:23 437.325/437.525
CUTE 1.7 + AOD 2 03 Dec 20:51:26 20:53:25 13° 270° (W) 20:55:24 437.475
ISS 03 Dec 20:58:09 21:00:11 15° 359° (N) 21:02:14 145.825
PRISM 03 Dec 21:00:07 21:03:22 22° 95° (E) 21:06:36 437.425
STRAND 1 03 Dec 21:00:19 21:04:43 30° 294° (WNW) 21:09:06 437.568
HO-68 03 Dec 21:05:51 21:10:52 20° 269° (W) 21:15:55 435.675
DELFI C3 03 Dec 21:13:16 21:17:05 55° 74° (ENE) 21:20:56 145.870
Oscar 11 03 Dec 21:13:32 21:17:44 50° 260° (W) 21:21:57 145.826/435.025
Cosmos 2491 03 Dec 21:15:33 21:19:33 14° 286° (WNW) 21:23:34 435.465 / 435.565
UWE-3 03 Dec 21:19:07 21:23:03 27° 265° (W) 21:26:59 435.000/436.395/437.385
CUSAT 1 03 Dec 21:25:17 21:28:40 60° 261° (W) 21:33:03 437.405
AAUSAT CUBESAT 2 03 Dec 21:28:05 21:30:11 14° 269° (W) 21:32:17 437.432
YUBILEINY 03 Dec 21:42:59 21:49:53 26° 295° (WNW) 21:56:53 435.215
DANDE 03 Dec 21:45:05 21:47:39 39° 79° (ENE) 21:50:38 436.750
AIST 1 03 Dec 21:56:17 21:58:39 14° 291° (WNW) 22:01:01
SO-50 03 Dec 21:57:00 22:01:35 46° 309° (NW) 22:06:07 436.795
PCSat 03 Dec 22:02:06 22:07:29 65° 245° (WSW) 22:12:50 145.827
ZACube-1 03 Dec 22:08:25 22:10:40 13° 270° (W) 22:12:55 437.345
CUBEBUG 1 03 Dec 22:09:45 22:11:27 12° 61° (ENE) 22:13:09 437.445
UNISAT 6 03 Dec 22:18:20 22:22:25 35° 97° (E) 22:26:24 437.425
FUNcube-1 03 Dec 22:18:33 22:20:02 11° 271° (W) 22:21:32 145.935
HUMSAT D 03 Dec 22:21:56 22:25:59 44° 261° (W) 22:30:01 437.325/437.525
ISS 03 Dec 22:34:47 22:37:33 24° 19° (NNE) 22:40:19 145.825
PRISM 03 Dec 22:35:00 22:38:40 31° 291° (WNW) 22:42:21 437.425
Cosmos 2504 03 Dec 22:36:14 22:42:39 24° 297° (WNW) 22:49:22 435.465 / 435.565
TIGRISAT 03 Dec 22:48:58 22:53:25 73° 103° (ESE) 22:57:43 435.000
ANTELSAT 03 Dec 22:49:43 22:54:10 79° 102° (ESE) 22:58:29 437.575/2403.000
DELFI C3 03 Dec 22:51:18 22:52:14 11° 270° (W) 22:53:11 145.870
ESTCUBE 1 03 Dec 22:51:56 22:56:17 53° 73° (ENE) 23:00:39 437.505/2401.250
SPROUT 03 Dec 23:04:49 23:07:58 20° 66° (ENE) 23:11:07 437.525
AISAT 03 Dec 23:10:00 23:14:03 37° 70° (ENE) 23:18:09 437.250
50 SAT 03 Dec 23:24:48 23:28:02 36° 72° (ENE) 23:31:18 437.505
NANOSAT C BR1 03 Dec 23:30:32 23:33:50 22° 94° (E) 23:37:05 145.865
QB50P2 03 Dec 23:33:31 23:37:09 27° 96° (E) 23:40:45 145.880/145.840
POLYITAN 1 03 Dec 23:34:11 23:37:45 26° 95° (E) 23:41:17 437.675
JAS-2 03 Dec 23:41:58 23:46:57 46° 99° (E) 23:52:06 435.910
CUBEBUG 1 03 Dec 23:42:48 23:47:07 70° 258° (WSW) 23:51:31 437.445
VELOX 1 03 Dec 23:46:42 23:51:06 87° 72° (ENE) 23:55:33 145.980
QB50P1 03 Dec 23:47:50 23:51:46 36° 98° (E) 23:55:39 145.935-145.965
Cosmos 2499 03 Dec 23:50:35 23:56:28 21° 78° (ENE) 00:02:29 435.465 / 435.565
DUCHIFAT 1 03 Dec 23:53:40 23:57:35 35° 98° (E) 00:01:26 145.980
UNISAT 6 03 Dec 23:55:32 23:58:54 22° 294° (WNW) 00:02:13 437.425
DX 1 04 Dec 00:08:45 00:13:05 83° 76° (ENE) 00:17:29 434.975-435.025
POPSAT HIP 1 04 Dec 00:08:53 00:13:07 62° 101° (E) 00:17:18 437.405
ISS 04 Dec 00:11:00 00:14:19 67° 218° (SW) 00:17:35 145.825
UKube-1 04 Dec 00:21:04 00:25:22 85° 78° (ENE) 00:29:43 .
GONETS M04 04 Dec 00:22:13 00:29:30 31° 83° (E) 00:36:47
TIGRISAT 04 Dec 00:27:54 00:29:27 12° 299° (WNW) 00:31:00 435.000
ANTELSAT 04 Dec 00:29:02 00:30:11 11° 300° (WNW) 00:31:19 437.575/2403.000
ESTCUBE 1 04 Dec 00:30:57 00:33:24 14° 269° (W) 00:35:53 437.505/2401.250
AUBIESAT-1 04 Dec 00:34:52 00:35:54 11° 53° (NE) 00:36:58 437.475
TISAT 1 04 Dec 00:35:12 00:38:57 32° 70° (ENE) 00:42:45 437.305
SPROUT 04 Dec 00:39:38 00:43:38 37° 262° (W) 00:47:40 437.525
M-CUBED/EXP-1 PRIME 04 Dec 00:43:11 00:45:42 16° 57° (ENE) 00:48:19 437.505
AISAT 04 Dec 00:47:19 00:50:37 21° 266° (W) 00:53:58 437.250
SWISSCUBE 04 Dec 00:53:03 00:55:20 13° 60° (ENE) 00:57:37 437.505
BEESAT 04 Dec 00:57:24 00:59:39 13° 60° (ENE) 01:01:55 436.000
50 SAT 04 Dec 00:59:52 01:01:30 13° 268° (W) 01:03:08 437.505
BUGSAT 1 04 Dec 01:01:01 01:05:15 80° 103° (ESE) 01:09:24 437.445
NANOSAT C BR1 04 Dec 01:05:48 01:09:35 32° 290° (WNW) 01:13:20 145.865
Gurwin Techsat 1B 04 Dec 01:07:20 01:08:15 10° 87° (E) 01:09:10 435.225
QB50P2 04 Dec 01:09:19 01:12:52 26° 292° (WNW) 01:16:23 145.880/145.840
POLYITAN 1 04 Dec 01:09:54 01:13:29 27° 292° (WNW) 01:17:03 437.675
O/OREOS (USA 219) 04 Dec 01:20:09 01:22:27 14° 51° (NE) 01:24:43 437.305
ITUPSAT 1 04 Dec 01:21:40 01:25:20 22° 65° (ENE) 01:29:01 437.325
QB50P1 04 Dec 01:24:10 01:27:17 20° 294° (WNW) 01:30:23 145.935-145.965
JAS-2 04 Dec 01:27:56 01:31:47 22° 297° (WNW) 01:35:43 435.910
Oscar 19 04 Dec 01:28:27 01:33:11 35° 97° (E) 01:37:54 437.125/150
DUCHIFAT 1 04 Dec 01:29:55 01:33:01 20° 294° (WNW) 01:36:05 145.980
Cosmos 2499 04 Dec 01:39:54 01:48:23 84° 277° (W) 01:57:21 435.465 / 435.565
POPSAT HIP 1 04 Dec 01:46:29 01:48:21 13° 298° (WNW) 01:50:14 437.405
PHONESAT 2.4 04 Dec 01:51:04 01:53:07 20° 157° (SSE) 01:55:11 2401.200-2431.200
AO-85 04 Dec 02:01:10 02:04:42 20° 112° (ESE) 02:08:05 145.980
AUBIESAT-1 04 Dec 02:05:28 02:09:32 87° 257° (WSW) 02:13:54 437.475
TISAT 1 04 Dec 02:11:17 02:14:37 22° 266° (W) 02:17:59 437.305
M-CUBED/EXP-1 PRIME 04 Dec 02:15:45 02:19:39 53° 255° (WSW) 02:23:55 437.505
GONETS M04 04 Dec 02:17:15 02:25:47 58° 283° (WNW) 02:34:22
MOZHAYETS 4 04 Dec 02:24:05 02:27:35 22° 66° (ENE) 02:31:04
SWISSCUBE 04 Dec 02:27:44 02:32:29 74° 256° (WSW) 02:37:17 437.505
BEESAT 04 Dec 02:32:03 02:36:49 75° 258° (WSW) 02:41:36 436.000
Gurwin Techsat 1B 04 Dec 02:43:34 02:48:55 88° 107° (ESE) 02:54:14 435.225
O/OREOS (USA 219) 04 Dec 02:57:54 03:02:23 71° 250° (WSW) 03:06:48 437.305
ITUPSAT 1 04 Dec 02:58:23 03:02:54 41° 261° (W) 03:07:27 437.325
Oscar 19 04 Dec 03:07:56 03:12:23 30° 294° (WNW) 03:16:51 437.125/150
KKS-1 04 Dec 03:11:39 03:15:30 29° 68° (ENE) 03:19:23 437.445
STARS 04 Dec 03:25:12 03:28:24 20° 65° (ENE) 03:31:35 437.465
PHONESAT 2.4 04 Dec 03:25:29 03:28:06 56° 172° (S) 03:30:43 2401.200-2431.200
ITAMSAT 1 04 Dec 03:30:21 03:35:27 55° 101° (E) 03:40:30 435.822/435.867
Cosmos 2499 04 Dec 03:37:17 03:42:59 19° 300° (WNW) 03:48:52 435.465 / 435.565
AO-85 04 Dec 03:40:03 03:44:51 53° 306° (NW) 03:49:19 145.980
AO-7 04 Dec 03:52:46 04:00:53 51° 102° (ESE) 04:08:57 29.400- 29.500
CUBESAT XI-V 04 Dec 03:56:42 04:00:35 28° 68° (ENE) 04:04:30 437.345
MOZHAYETS 4 04 Dec 04:00:12 04:04:29 39° 262° (W) 04:08:48
GONETS M04 04 Dec 04:22:41 04:24:51 11° 307° (NW) 04:27:01
Gurwin Techsat 1B 04 Dec 04:25:38 04:28:05 13° 302° (WNW) 04:30:34 435.225
BRITE-PL 04 Dec 04:25:43 04:28:24 14° 89° (E) 04:31:08 437.365/2234.400
SO-50 04 Dec 04:48:03 04:51:46 24° 44° (NE) 04:55:26 436.795
KKS-1 04 Dec 04:48:14 04:52:01 27° 264° (W) 04:55:50 437.445
STARS 04 Dec 05:00:16 05:04:26 41° 261° (W) 05:08:40 437.465
PHONESAT 2.4 04 Dec 05:00:40 05:03:15 52° 190° (S) 05:05:51 2401.200-2431.200
ITAMSAT 1 04 Dec 05:10:50 05:14:29 20° 298° (WNW) 05:18:08 435.822/435.867
CUBESAT XI-V 04 Dec 05:33:55 05:37:53 29° 264° (W) 05:41:53 437.345
AO-7 04 Dec 05:45:53 05:53:25 39° 300° (WNW) 06:00:58 29.400- 29.500
GOMX 1 04 Dec 05:50:04 05:55:07 37° 96° (E) 06:00:10 467.674
HORYU 2 04 Dec 05:52:36 05:57:01 63° 102° (ESE) 06:01:23 437.375
YUBILEINY 04 Dec 05:53:37 06:01:35 36° 71° (ENE) 06:09:31 435.215
BRITE-PL 04 Dec 06:01:58 06:07:20 81° 285° (WNW) 06:12:58 437.365/2234.400
BEESAT 3 04 Dec 06:12:43 06:16:36 89° 294° (WNW) 06:20:34 437.485
DOVE 4 04 Dec 06:12:49 06:17:16 26° 93° (E) 06:21:36 437.250
NOAA 18 04 Dec 06:17:17 06:21:24 21° 93° (E) 06:25:29 137.9125
LilacSat-2 04 Dec 06:20:43 06:24:13 34° 97° (E) 06:27:39 437.200
Cosmos 2491 04 Dec 06:22:27 06:29:17 26° 81° (E) 06:36:06 435.465 / 435.565
AIST 1 04 Dec 06:24:27 06:26:46 14° 69° (ENE) 06:29:04
CUTE-I 04 Dec 06:26:55 06:31:55 40° 98° (E) 06:36:53 437.470
SO-50 04 Dec 06:28:07 06:32:25 44° 243° (WSW) 06:36:39 436.795
Cosmos 2504 04 Dec 06:32:52 06:40:33 32° 68° (ENE) 06:47:53 435.465 / 435.565
PHONESAT 2.4 04 Dec 06:36:20 06:38:12 17° 205° (SSW) 06:40:06 2401.200-2431.200
BEESAT 2 04 Dec 06:36:51 06:40:46 76° 121° (ESE) 06:44:46 435.950
STRAND 1 04 Dec 06:37:02 06:41:58 50° 71° (ENE) 06:46:56 437.568
HO-68 04 Dec 06:45:37 06:48:34 13° 87° (E) 06:51:30 435.675
Cubesat XI-IV 04 Dec 06:51:55 06:57:15 67° 102° (ESE) 07:02:32 437.490
NOAA 15 04 Dec 06:57:03 07:02:21 83° 106° (ESE) 07:07:38 137.62
RS-15 04 Dec 07:01:04 07:11:02 34° 104° (ESE) 07:21:21 29.354- 29.394
CANX-2 04 Dec 07:16:09 07:18:50 16° 92° (E) 07:21:29 2200.000
GOMX 1 04 Dec 07:28:18 07:33:02 31° 292° (WNW) 07:37:48 467.674
HORYU 2 04 Dec 07:30:48 07:33:02 14° 298° (WNW) 07:35:14 437.375
BRITE-PL 04 Dec 07:43:02 07:45:02 12° 300° (WNW) 07:47:03 437.365/2234.400
SEEDS 04 Dec 07:45:56 07:49:04 20° 93° (E) 07:52:11 437.485
CINEMA 3 04 Dec 07:47:33 07:52:21 55° 99° (E) 07:56:54 145.822/145.860
DOVE 4 04 Dec 07:50:04 07:55:01 40° 290° (WNW) 07:59:52 437.250
YUBILEINY 04 Dec 07:50:13 07:58:38 52° 271° (W) 08:07:03 435.215
PRISM 04 Dec 07:50:23 07:53:02 17° 65° (ENE) 07:55:42 437.425
BEESAT 3 04 Dec 07:53:17 07:54:51 12° 322° (NW) 07:56:24 437.485
LilacSat-2 04 Dec 07:55:48 07:58:13 17° 294° (WNW) 08:00:38 437.200
NOAA 18 04 Dec 07:56:58 08:02:22 54° 290° (WNW) 08:07:42 137.9125
AIST 1 04 Dec 08:00:25 08:04:43 54° 266° (W) 08:09:00
COMPASS 1 04 Dec 08:00:43 08:03:47 20° 93° (E) 08:06:49 437.405
CUTE-I 04 Dec 08:07:19 08:11:45 27° 295° (WNW) 08:16:10 437.470
Cosmos 2491 04 Dec 08:16:36 08:25:21 68° 281° (W) 08:34:06 435.465 / 435.565
BEESAT 2 04 Dec 08:16:57 08:19:04 14° 320° (NW) 08:21:12 435.950
STRAND 1 04 Dec 08:17:42 08:21:24 20° 267° (W) 08:25:08 437.568
ZACube-1 04 Dec 08:20:36 08:21:17 10° 88° (E) 08:21:59 437.345
CUBEBUG 2 04 Dec 08:20:54 08:24:48 29° 95° (E) 08:28:34 437.445
Cosmos 2504 04 Dec 08:25:50 08:34:28 60° 269° (W) 08:42:38 435.465 / 435.565
FUNcube-1 04 Dec 08:28:42 08:30:22 12° 89° (E) 08:32:02 145.935
HO-68 04 Dec 08:30:08 08:37:23 77° 105° (ESE) 08:44:34 435.675
CUTE 1.7 + AOD 2 04 Dec 08:33:09 08:37:22 79° 284° (WNW) 08:41:34 437.475
Cubesat XI-IV 04 Dec 08:33:20 08:36:45 17° 300° (WNW) 08:40:09 437.490
NOAA 15 04 Dec 08:38:47 08:41:25 14° 301° (WNW) 08:44:03 137.62
AIST 2 04 Dec 08:44:42 08:48:35 42° 117° (ESE) 08:52:31 435.215
CANX-2 04 Dec 08:50:53 08:54:52 42° 288° (WNW) 08:58:51 2200.000
Oscar 11 04 Dec 09:00:32 09:04:14 27° 95° (E) 09:07:55 145.826/435.025
AAUSAT CUBESAT 2 04 Dec 09:07:18 09:11:27 88° 99° (E) 09:15:36 437.432
UWE-3 04 Dec 09:07:44 09:12:04 62° 101° (E) 09:16:14 435.000/436.395/437.385
RS-15 04 Dec 09:10:43 09:22:30 73° 307° (NW) 09:34:54 29.354- 29.394
UNISAT 6 04 Dec 09:16:59 09:21:14 35° 69° (ENE) 09:25:27 437.425
SEEDS 04 Dec 09:21:03 09:24:50 33° 289° (WNW) 09:28:35 437.485
PRISM 04 Dec 09:24:11 09:28:01 40° 261° (W) 09:31:53 437.425
CINEMA 3 04 Dec 09:25:50 09:28:58 17° 297° (WNW) 09:32:02 145.822/145.860
COMPASS 1 04 Dec 09:35:39 09:39:24 34° 289° (WNW) 09:43:09 437.405
TIGRISAT 04 Dec 09:47:10 09:51:50 66° 74° (ENE) 09:56:28 435.000
ANTELSAT 04 Dec 09:48:03 09:52:43 72° 75° (ENE) 09:57:23 437.575/2403.000
ZACube-1 04 Dec 09:53:49 09:58:03 66° 285° (WNW) 10:02:11 437.345
JAS-2 04 Dec 09:55:10 10:00:09 24° 65° (ENE) 10:04:43 435.910
CUBEBUG 2 04 Dec 09:57:39 10:01:18 25° 293° (WNW) 10:04:50 437.445
FUNcube-1 04 Dec 10:02:50 10:07:00 56° 286° (WNW) 10:11:04 145.935
HUMSAT D 04 Dec 10:05:05 10:08:32 26° 95° (E) 10:11:57 437.325/437.525
HO-68 04 Dec 10:19:03 10:24:20 23° 304° (WNW) 10:29:37 435.675
Cosmos 2491 04 Dec 10:20:03 10:24:05 14° 304° (WNW) 10:28:10 435.465 / 435.565
NANOSAT C BR1 04 Dec 10:23:18 10:26:13 18° 65° (ENE) 10:29:08 145.865
AIST 2 04 Dec 10:24:01 10:27:14 22° 315° (NW) 10:30:30 435.215
DELFI C3 04 Dec 10:24:36 10:28:35 90° 356° (N) 10:32:34 145.870
Cosmos 2504 04 Dec 10:24:55 10:25:47 10° 290° (WNW) 10:26:38 435.465 / 435.565
QB50P2 04 Dec 10:26:35 10:29:55 22° 67° (ENE) 10:33:15 145.880/145.840
POLYITAN 1 04 Dec 10:27:15 10:30:31 22° 66° (ENE) 10:33:48 437.675
CUSAT 1 04 Dec 10:29:32 10:32:48 46° 280° (W) 10:35:34 437.405
AO-85 04 Dec 10:31:57 10:34:39 17° 42° (NE) 10:37:18 145.980
GONETS M04 04 Dec 10:32:13 10:36:56 15° 58° (ENE) 10:41:38
Oscar 11 04 Dec 10:36:42 10:40:17 26° 292° (WNW) 10:43:52 145.826/435.025
QB50P1 04 Dec 10:40:29 10:44:11 29° 69° (ENE) 10:47:53 145.935-145.965
DUCHIFAT 1 04 Dec 10:45:45 10:49:23 28° 69° (ENE) 10:53:03 145.980
UWE-3 04 Dec 10:46:00 10:47:57 13° 298° (WNW) 10:49:52 435.000/436.395/437.385
ESTCUBE 1 04 Dec 10:46:30 10:47:40 11° 89° (E) 10:48:50 437.505/2401.250
DANDE 04 Dec 10:53:03 10:58:03 68° 99° (E) 11:01:48 436.750
UNISAT 6 04 Dec 10:54:07 10:57:57 25° 266° (W) 11:01:48 437.425
POPSAT HIP 1 04 Dec 11:01:18 11:05:24 47° 72° (ENE) 11:09:32 437.405
PCSat 04 Dec 11:03:22 11:06:21 15° 104° (ESE) 11:09:22 145.827
TIGRISAT 04 Dec 11:26:46 11:28:55 13° 270° (W) 11:31:04 435.000
RS-15 04 Dec 11:27:25 11:37:40 30° 336° (NNW) 11:48:10 29.354- 29.394
ANTELSAT 04 Dec 11:28:07 11:29:53 12° 271° (W) 11:31:38 437.575/2403.000
CUBEBUG 1 04 Dec 11:31:37 11:34:59 21° 94° (E) 11:38:21 437.445
Cosmos 2499 04 Dec 11:31:38 11:39:38 39° 71° (ENE) 11:47:05 435.465 / 435.565
VELOX 1 04 Dec 11:37:32 11:40:20 16° 92° (E) 11:43:06 145.980
JAS-2 04 Dec 11:38:24 11:44:56 56° 259° (WSW) 11:50:44 435.910
HUMSAT D 04 Dec 11:40:43 11:44:04 25° 292° (WNW) 11:47:23 437.325/437.525
BUGSAT 1 04 Dec 11:50:30 11:54:37 56° 73° (ENE) 11:58:48 437.445
NANOSAT C BR1 04 Dec 11:57:35 12:01:36 41° 261° (W) 12:05:41 145.865
DX 1 04 Dec 11:58:06 12:00:23 14° 91° (E) 12:02:41 434.975-435.025
QB50P2 04 Dec 12:01:39 12:05:31 33° 263° (W) 12:09:24 145.880/145.840
POLYITAN 1 04 Dec 12:02:10 12:06:06 34° 263° (W) 12:10:03 437.675
UKube-1 04 Dec 12:09:22 12:11:31 13° 91° (E) 12:13:41 .
AO-85 04 Dec 12:11:32 12:15:23 51° 242° (WSW) 12:19:07 145.980
QB50P1 04 Dec 12:16:23 12:19:55 25° 265° (W) 12:23:28 145.935-145.965
ESTCUBE 1 04 Dec 12:20:27 12:24:57 72° 285° (WNW) 12:29:27 437.505/2401.250
DUCHIFAT 1 04 Dec 12:21:30 12:25:01 25° 265° (W) 12:28:35 145.980
50 SAT 04 Dec 12:23:29 12:26:51 40° 99° (E) 12:30:13 437.505
SPROUT 04 Dec 12:24:53 12:28:49 34° 97° (E) 12:32:42 437.525
GONETS M04 04 Dec 12:26:43 12:35:28 74° 81° (E) 12:44:11
Gurwin Techsat 1B 04 Dec 12:27:07 12:30:52 20° 62° (ENE) 12:34:37 435.225
AISAT 04 Dec 12:35:30 12:40:00 72° 102° (ESE) 12:44:27 437.250
POPSAT HIP 1 04 Dec 12:38:54 12:41:25 15° 268° (W) 12:43:57 437.405
PCSat 04 Dec 12:43:40 12:49:04 75° 302° (WNW) 12:54:31 145.827
Oscar 19 04 Dec 12:45:30 12:50:27 52° 71° (ENE) 12:55:27 437.125/150
AO-7 04 Dec 13:03:54 13:08:44 17° 47° (NE) 13:13:36 29.400- 29.500
CUBEBUG 1 04 Dec 13:07:16 13:11:21 36° 290° (WNW) 13:15:25 437.445
VELOX 1 04 Dec 13:12:44 13:17:02 48° 288° (WNW) 13:21:19 145.980
ITAMSAT 1 04 Dec 13:13:01 13:15:05 12° 58° (ENE) 13:17:08 435.822/435.867
Cosmos 2499 04 Dec 13:24:44 13:32:52 47° 272° (W) 13:40:28 435.465 / 435.565
BUGSAT 1 04 Dec 13:28:28 13:30:20 13° 270° (W) 13:32:13 437.445
DX 1 04 Dec 13:32:36 13:36:54 54° 287° (WNW) 13:41:10 434.975-435.025
UKube-1 04 Dec 13:43:38 13:47:54 55° 287° (WNW) 13:52:07 .
RS-15 04 Dec 13:45:58 13:55:41 25° 12° (NNE) 14:05:21 29.354- 29.394
TISAT 1 04 Dec 13:53:37 13:57:47 52° 100° (E) 14:01:53 437.305
M-CUBED/EXP-1 PRIME 04 Dec 13:56:27 13:58:00 11° 93° (E) 13:59:31 437.505
50 SAT 04 Dec 13:58:06 13:59:47 13° 295° (WNW) 14:01:29 437.505
SPROUT 04 Dec 14:01:14 14:04:32 22° 293° (WNW) 14:07:48 437.525
Gurwin Techsat 1B 04 Dec 14:05:08 14:10:21 58° 259° (W) 14:15:37 435.225
AISAT 04 Dec 14:14:00 14:15:51 12° 299° (WNW) 14:17:42 437.250
GONETS M04 04 Dec 14:24:58 14:31:20 23° 280° (W) 14:37:45
Oscar 19 04 Dec 14:26:30 14:30:05 19° 268° (W) 14:33:40 437.125/150
SWISSCUBE 04 Dec 14:27:56 14:31:57 27° 96° (E) 14:35:57 437.505
BEESAT 3 04 Dec 14:29:19 14:33:15 57° 54° (NE) 14:37:10 437.485
PCSat 04 Dec 14:30:25 14:33:25 15° 321° (NW) 14:36:26 145.827
BEESAT 04 Dec 14:32:12 14:36:13 26° 95° (E) 14:40:12 436.000
ITAMSAT 1 04 Dec 14:48:31 14:53:45 87° 76° (ENE) 14:59:00 435.822/435.867
AO-7 04 Dec 14:51:50 15:00:03 70° 68° (ENE) 15:08:20 29.400- 29.500
BEESAT 2 04 Dec 14:54:20 14:58:15 49° 53° (NE) 15:02:10 435.950
ITUPSAT 1 04 Dec 14:58:09 15:02:46 47° 100° (E) 15:07:20 437.325
AUBIESAT-1 04 Dec 15:17:41 15:22:18 68° 107° (ESE) 15:26:43 437.475
M-CUBED/EXP-1 PRIME 04 Dec 15:28:15 15:32:59 78° 290° (WNW) 15:37:31 437.505
TISAT 1 04 Dec 15:30:38 15:32:57 15° 297° (WNW) 15:35:17 437.305
O/OREOS (USA 219) 04 Dec 15:33:59 15:35:55 13° 98° (E) 15:37:51 437.305
BRITE-PL 04 Dec 15:38:23 15:40:11 12° 60° (ENE) 15:42:00 437.365/2234.400
MOZHAYETS 4 04 Dec 15:54:26 15:58:49 45° 99° (E) 16:03:11
SWISSCUBE 04 Dec 16:05:31 16:09:44 33° 292° (WNW) 16:13:57 437.505
BEESAT 3 04 Dec 16:08:35 16:10:24 13° 251° (WSW) 16:12:13 437.485
